| time (UTC) | temp F | wind direction | speed knots | gust knots | rain 1hr in | rain 24hr in | rain mn in | humidity % | barometer mb |
| 20260902134530 | 78 | 218 | 1.7 | 6.1 | 0.00 | 0.00 | 0.00 | 57 | 1007.1 |
| 20260902133028 | 77 | 96 | 0.9 | 3.5 | 0.00 | 0.00 | 0.00 | 60 | 1006.9 |
| 20260902131525 | 76 | 186 | 0.9 | 4.3 | 0.00 | 0.00 | 0.00 | 61 | 1006.7 |
| 20260902130023 | 75 | 202 | 0.9 | 2.6 | 0.00 | 0.00 | 0.00 | 61 | 1006.7 |
| 20260902124522 | 74 | 191 | 1.7 | 5.2 | 0.00 | 0.00 | 0.00 | 62 | 1006.5 |
| 20260902123026 | 74 | 67 | 2.6 | 4.3 | 0.00 | 0.00 | 0.00 | 62 | 1006.4 |
| 20260902121519 | 74 | 50 | 1.7 | 3.5 | 0.00 | 0.00 | 0.00 | 62 | 1006.3 |
| 20260902120014 | 76 | 355 | 0.9 | 3.5 | 0.00 | 0.00 | 0.00 | 58 | 1006.2 |
| 20260902114512 | 77 | 228 | 1.7 | 8.7 | 0.00 | 0.00 | 0.00 | 56 | 1006.0 |
| 20260902113010 | 77 | 193 | 6.1 | 12.2 | 0.00 | 0.00 | 0.00 | 56 | 1005.8 |
| 20260902111525 | 77 | 181 | 7.8 | 14.8 | 0.00 | 0.00 | 0.00 | 55 | 1005.7 |
| 20260902110022 | 78 | 212 | 8.7 | 16.5 | 0.00 | 0.00 | 0.00 | 55 | 1005.6 |
| 20260902104506 | 78 | 187 | 8.7 | 20.9 | 0.00 | 0.00 | 0.00 | 54 | 1005.8 |
| 20260902103003 | 78 | 136 | 9.6 | 15.6 | 0.00 | 0.00 | 0.00 | 54 | 1005.8 |
| 20260902101502 | 78 | 173 | 7.8 | 14.8 | 0.00 | 0.00 | 0.00 | 54 | 1005.8 |
| 20260902100059 | 78 | 182 | 8.7 | 16.5 | 0.00 | 0.00 | 0.00 | 53 | 1005.8 |
| 20260902094557 | 78 | 173 | 10.4 | 17.4 | 0.00 | 0.00 | 0.00 | 53 | 1005.8 |
| 20260902093054 | 78 | 178 | 8.7 | 16.5 | 0.00 | 0.00 | 0.00 | 52 | 1005.9 |
| 20260902091558 | 79 | 203 | 8.7 | 16.5 | 0.00 | 0.00 | 0.00 | 52 | 1005.9 |
| 20260902090048 | 79 | 184 | 7.8 | 18.2 | 0.00 | 0.00 | 0.00 | 51 | 1006.0 |
| 20260902084550 | 79 | 161 | 8.7 | 16.5 | 0.00 | 0.00 | 0.00 | 50 | 1005.9 |
| 20260902083050 | 79 | 182 | 10.4 | 17.4 | 0.00 | 0.00 | 0.00 | 50 | 1005.9 |
| 20260902081544 | 79 | 265 | 7.0 | 14.8 | 0.00 | 0.00 | 0.00 | 50 | 1005.9 |
| 20260902080100 | 79 | 182 | 8.7 | 14.8 | 0.00 | 0.00 | 0.00 | 50 | 1006.0 |
| 20260902074540 | 79 | 213 | 9.6 | 17.4 | 0.00 | 0.00 | 0.00 | 49 | 1005.9 |
| 20260902073038 | 80 | 194 | 9.6 | 17.4 | 0.00 | 0.00 | 0.00 | 48 | 1005.9 |
| 20260902071538 | 80 | 181 | 9.6 | 18.2 | 0.00 | 0.00 | 0.00 | 48 | 1005.9 |
| 20260902070033 | 80 | 181 | 8.7 | 14.8 | 0.00 | 0.00 | 0.00 | 47 | 1005.8 |
| 20260902064532 | 81 | 175 | 8.7 | 17.4 | 0.00 | 0.00 | 0.00 | 46 | 1005.8 |
| 20260902063033 | 81 | 194 | 8.7 | 16.5 | 0.00 | 0.00 | 0.00 | 45 | 1005.8 |
| 20260902061544 | 81 | 182 | 9.6 | 14.8 | 0.00 | 0.00 | 0.00 | 44 | 1005.8 |
| 20260902060032 | 81 | 163 | 8.7 | 15.6 | 0.00 | 0.00 | 0.00 | 42 | 1005.8 |
| 20260902054539 | 82 | 112 | 7.0 | 18.2 | 0.00 | 0.00 | 0.00 | 41 | 1005.9 |
| 20260902053022 | 82 | 176 | 7.8 | 13.9 | 0.00 | 0.00 | 0.00 | 41 | 1005.8 |
| 20260902051516 | 83 | 155 | 7.0 | 14.8 | 0.00 | 0.00 | 0.00 | 41 | 1005.8 |
| 20260902050015 | 83 | 183 | 7.0 | 12.2 | 0.00 | 0.00 | 0.00 | 41 | 1005.9 |
| 20260902044513 | 83 | 119 | 6.1 | 9.6 | 0.00 | 0.00 | 0.00 | 42 | 1006.0 |
| 20260902043016 | 84 | 189 | 5.2 | 13.9 | 0.00 | 0.00 | 0.00 | 41 | 1006.1 |
| 20260902041513 | 84 | 120 | 5.2 | 11.3 | 0.00 | 0.00 | 0.00 | 41 | 1006.2 |
| 20260902040011 | 84 | 159 | 5.2 | 12.2 | 0.00 | 0.00 | 0.00 | 41 | 1006.2 |
| 20260902034511 | 84 | 142 | 5.2 | 12.2 | 0.00 | 0.00 | 0.00 | 42 | 1006.3 |
| 20260902033013 | 84 | 106 | 5.2 | 12.2 | 0.00 | 0.00 | 0.00 | 42 | 1006.1 |
| 20260902031510 | 85 | 117 | 5.2 | 11.3 | 0.00 | 0.00 | 0.00 | 42 | 1006.0 |
| 20260902030009 | 85 | 100 | 4.3 | 11.3 | 0.00 | 0.00 | 0.00 | 42 | 1005.9 |
| 20260902024508 | 85 | 138 | 5.2 | 9.6 | 0.00 | 0.00 | 0.00 | 42 | 1005.8 |
| 20260902023008 | 86 | 140 | 6.1 | 12.2 | 0.00 | 0.00 | 0.00 | 41 | 1005.5 |
| 20260902021516 | 86 | 126 | 4.3 | 10.4 | 0.00 | 0.00 | 0.00 | 41 | 1005.4 |
| 20260902020007 | 86 | 109 | 6.1 | 9.6 | 0.00 | 0.00 | 0.00 | 42 | 1005.1 |
| 20260902014516 | 87 | 110 | 3.5 | 8.7 | 0.00 | 0.00 | 0.00 | 41 | 1004.9 |
| 20260902013006 | 88 | 140 | 3.5 | 8.7 | 0.00 | 0.00 | 0.00 | 40 | 1004.8 |
| 20260902011506 | 89 | 123 | 4.3 | 9.6 | 0.00 | 0.00 | 0.00 | 39 | 1004.6 |
| 20260902010006 | 90 | 126 | 6.1 | 12.2 | 0.00 | 0.00 | 0.00 | 38 | 1004.4 |
| 20260902004506 | 91 | 128 | 3.5 | 11.3 | 0.00 | 0.00 | 0.00 | 38 | 1004.3 |
| 20260902003008 | 91 | 161 | 5.2 | 13.0 | 0.00 | 0.00 | 0.00 | 37 | 1004.1 |
| 20260902001504 | 92 | 144 | 6.1 | 16.5 | 0.00 | 0.00 | 0.00 | 37 | 1004.0 |
| 20260902000007 | 93 | 155 | 4.3 | 14.8 | 0.00 | 0.00 | 0.00 | 36 | 1004.0 |
| 20260901234502 | 93 | 159 | 6.1 | 13.0 | 0.00 | 0.00 | 0.00 | 35 | 1004.0 |
| 20260901233002 | 94 | 167 | 4.3 | 12.2 | 0.00 | 0.00 | 0.00 | 35 | 1004.0 |
| 20260901231500 | 94 | 163 | 6.1 | 13.0 | 0.00 | 0.00 | 0.00 | 34 | 1004.0 |
| 20260901230103 | 95 | 191 | 7.0 | 15.6 | 0.00 | 0.00 | 0.00 | 31 | 1004.0 |
| 20260901224559 | 95 | 178 | 4.3 | 13.0 | 0.00 | 0.00 | 0.00 | 30 | 1004.0 |
| 20260901223059 | 96 | 144 | 3.5 | 13.9 | 0.00 | 0.00 | 0.00 | 31 | 1004.1 |
| 20260901221619 | 95 | 165 | 5.2 | 14.8 | 0.00 | 0.00 | 0.00 | 30 | 1004.1 |
| 20260901220111 | 95 | 198 | 5.2 | 13.9 | 0.00 | 0.00 | 0.00 | 31 | 1004.3 |
| 20260901214555 | 95 | 143 | 6.1 | 16.5 | 0.00 | 0.00 | 0.00 | 32 | 1004.4 |
| 20260901213109 | 95 | 184 | 3.5 | 10.4 | 0.00 | 0.00 | 0.00 | 32 | 1004.5 |
| 20260901211554 | 95 | 127 | 4.3 | 13.9 | 0.00 | 0.00 | 0.00 | 33 | 1004.7 |
| 20260901210050 | 95 | 132 | 7.0 | 13.9 | 0.00 | 0.00 | 0.00 | 32 | 1004.9 |
| 20260901204549 | 96 | 224 | 8.7 | 14.8 | 0.00 | 0.00 | 0.00 | 32 | 1005.2 |
| 20260901203058 | 96 | 242 | 4.3 | 12.2 | 0.00 | 0.00 | 0.00 | 33 | 1005.5 |
| 20260901201544 | 96 | 189 | 3.5 | 13.0 | 0.00 | 0.00 | 0.00 | 33 | 1005.8 |
| 20260901200051 | 95 | 211 | 7.0 | 16.5 | 0.00 | 0.00 | 0.00 | 33 | 1005.9 |
| 20260901194541 | 95 | 171 | 6.1 | 10.4 | 0.00 | 0.00 | 0.00 | 31 | 1005.9 |
| 20260901193055 | 95 | 180 | 5.2 | 13.9 | 0.00 | 0.00 | 0.00 | 31 | 1006.0 |
| 20260901191538 | 95 | 238 | 5.2 | 9.6 | 0.00 | 0.00 | 0.00 | 32 | 1006.3 |
| 20260901190034 | 95 | 134 | 5.2 | 13.0 | 0.00 | 0.00 | 0.00 | 33 | 1006.4 |
| 20260901184535 | 94 | 186 | 2.6 | 9.6 | 0.00 | 0.00 | 0.00 | 34 | 1006.6 |
| 20260901183029 | 93 | 165 | 2.6 | 7.8 | 0.00 | 0.00 | 0.00 | 37 | 1006.7 |
| 20260901181529 | 92 | 180 | 5.2 | 9.6 | 0.00 | 0.00 | 0.00 | 36 | 1006.9 |
| 20260901180028 | 93 | 264 | 4.3 | 9.6 | 0.00 | 0.00 | 0.00 | 37 | 1007.0 |
| 20260901174527 | 92 | 211 | 5.2 | 11.3 | 0.00 | 0.00 | 0.00 | 39 | 1007.3 |
| 20260901173023 | 91 | 246 | 4.3 | 9.6 | 0.00 | 0.00 | 0.00 | 40 | 1007.4 |
| 20260901171524 | 91 | 238 | 3.5 | 12.2 | 0.00 | 0.00 | 0.00 | 42 | 1007.5 |
| 20260901170017 | 90 | 202 | 4.3 | 12.2 | 0.00 | 0.00 | 0.00 | 42 | 1007.7 |
| 20260901164515 | 89 | 214 | 6.1 | 10.4 | 0.00 | 0.00 | 0.00 | 43 | 1007.8 |
| 20260901163013 | 89 | 231 | 5.2 | 10.4 | 0.00 | 0.00 | 0.00 | 43 | 1007.8 |
| 20260901161511 | 88 | 247 | 3.5 | 8.7 | 0.00 | 0.00 | 0.00 | 44 | 1007.7 |
| 20260901160007 | 87 | 256 | 6.1 | 12.2 | 0.00 | 0.00 | 0.00 | 45 | 1007.8 |
| 20260901154515 | 86 | 255 | 3.5 | 7.8 | 0.00 | 0.00 | 0.00 | 46 | 1007.8 |
| 20260901153001 | 85 | 223 | 5.2 | 8.7 | 0.00 | 0.00 | 0.00 | 46 | 1007.8 |
| 20260901151559 | 85 | 214 | 2.6 | 7.8 | 0.00 | 0.00 | 0.00 | 47 | 1007.8 |
| 20260901150054 | 83 | 252 | 2.6 | 7.0 | 0.00 | 0.00 | 0.00 | 48 | 1007.9 |
| 20260901144554 | 81 | 328 | 0.9 | 2.6 | 0.00 | 0.00 | 0.00 | 51 | 1008.0 |
| 20260901143054 | 79 | 300 | 0.0 | 2.6 | 0.00 | 0.00 | 0.00 | 53 | 1008.0 |
| 20260901141557 | 77 | 344 | 0.0 | 1.7 | 0.00 | 0.00 | 0.00 | 56 | 1008.2 |
| 20260901140051 | 76 | 344 | 0.9 | 2.6 | 0.00 | 0.00 | 0.00 | 56 | 1008.3 |